Location: Moscow
(55.7500°N, 37.5830°E)
Time: 11:37:15
(UTC+03:00)

A-11 Canister half - Pass Details

Date: 07 December 2021
Orbit: 1516 x 1684 km, 47.2° (Epoch: 24 January)

Event Time Altitude Azimuth Distance (km) Brightness Sun altitude
Rises 09:11:51 0° 253° (WSW) 4,794 11.3 1.9°
Reaches altitude 10° 09:15:00 10° 249° (WSW) 3,832 10.9 2.2°
Maximum altitude 09:24:22 53° 177° (S) 1,961 10.1 3.1°
Drops below altitude 10° 09:34:01 10° 105° (ESE) 3,937 12.1 4.0°
Sets 09:37:18 0° 101° (E) 4,933 12.5 4.3°
